KH2PM Weather Reports


time (UTC)temp
F
wind
direction
speed
knots
gust
knots
rain 1hr
in
rain 24hr
in
rain mn
in
humidity
%
barometer
mb
20260505124504 66 308 1.7 5.2 0.00 0.00 0.00 69 1018.0
20260505124004 65 255 1.7 2.6 0.00 0.00 0.00 69 1017.9
20260505123504 65 184 0.9 2.6 0.00 0.00 0.00 69 1018.0
20260505123004 65 158 0.9 2.6 0.00 0.00 0.00 69 1017.9
20260505122504 64 189 1.7 2.6 0.00 0.00 0.00 69 1017.9
20260505122004 64 132 1.7 2.6 0.00 0.00 0.00 72 1017.9
20260505121504 63 181 0.9 2.6 0.00 0.00 0.00 72 1018.1
20260505121005 63 177 0.9 2.6 0.00 0.00 0.00 74 1018.0
20260505120504 62 168 1.7 5.2 0.00 0.00 0.00 74 1018.0
20260505120005 61 148 0.9 2.6 0.00 0.00 0.00 76 1017.9
20260505115504 60 140 1.7 2.6 0.00 0.00 0.00 76 1017.9
20260505114004 58 178 0.0 1.7 0.00 0.00 0.00 82 1017.8
20260505113503 57 235 0.9 1.7 0.00 0.00 0.00 82 1017.8
20260505113004 56 213 0.9 1.7 0.00 0.00 0.00 84 1017.7
20260505112505 55 154 0.0 0.9 0.00 0.00 0.00 87 1017.6
20260505112004 55 154 0.9 1.7 0.00 0.00 0.00 88 1017.5
20260505111505 54 145 0.0 0.0 0.00 0.00 0.00 87 1017.5
20260505111004 53 145 0.0 0.0 0.00 0.00 0.00 88 1017.4
20260505110505 52 123 0.0 0.0 0.00 0.00 0.00 89 1017.3
20260505102004 51 128 0.0 0.0 0.00 0.00 0.00 88 1016.9
20260505101504 52 128 0.0 0.0 0.00 0.00 0.00 87 1016.9
20260505101004 52 128 0.0 0.0 0.00 0.00 0.00 87 1016.9
20260505100504 52 128 0.0 0.0 0.00 0.00 0.00 87 1016.8
20260505100004 52 128 0.0 0.0 0.00 0.00 0.00 87 1016.8
20260505095504 52 128 0.0 0.0 0.00 0.00 0.00 87 1016.8
20260505095004 52 128 0.0 0.0 0.00 0.00 0.00 86 1016.7
20260505094504 52 128 0.0 0.0 0.00 0.00 0.00 86 1016.7
20260505094004 52 128 0.0 0.0 0.00 0.00 0.00 86 1016.7
20260505093504 52 128 0.0 0.0 0.00 0.00 0.00 86 1016.7
20260505093004 52 128 0.0 0.0 0.00 0.00 0.00 86 1016.6
20260505092504 52 128 0.0 0.0 0.00 0.00 0.00 85 1016.6
20260505092004 52 128 0.0 0.0 0.00 0.00 0.00 85 1016.5
20260505091504 52 128 0.0 0.0 0.00 0.00 0.00 85 1016.5
20260505091004 52 128 0.0 0.9 0.00 0.00 0.00 84 1016.5
20260505090504 53 128 0.9 1.7 0.00 0.00 0.00 84 1016.4
20260505090004 53 128 0.9 1.7 0.00 0.00 0.00 84 1016.5
20260505085504 53 128 0.9 1.7 0.00 0.00 0.00 83 1016.5
20260505085004 53 128 0.0 0.9 0.00 0.00 0.00 83 1016.4
20260505084504 53 128 0.0 0.9 0.00 0.00 0.00 82 1016.3
20260505084004 54 128 0.0 0.0 0.00 0.00 0.00 82 1016.3
20260505083504 54 128 0.0 0.0 0.00 0.00 0.00 81 1016.3
20260505083005 54 128 0.0 0.0 0.00 0.00 0.00 80 1016.3
20260505082504 55 128 0.0 0.0 0.00 0.00 0.00 80 1016.4
20260505082004 55 128 0.0 0.0 0.00 0.00 0.00 80 1016.4
20260505081505 55 128 0.0 0.0 0.00 0.00 0.00 79 1016.3
20260505081004 55 128 0.0 0.0 0.00 0.00 0.00 79 1016.3
20260505080503 55 128 0.0 0.0 0.00 0.00 0.00 79 1016.3
20260505075503 55 128 0.9 1.7 0.00 0.00 0.00 78 1016.1
20260505075004 55 128 0.9 1.7 0.00 0.00 0.00 78 1016.1
20260505074005 55 128 0.9 1.7 0.00 0.00 0.00 78 1016.0
20260505073504 55 136 0.9 2.6 0.00 0.00 0.00 77 1016.0
20260505073004 56 129 1.7 2.6 0.00 0.00 0.00 77 1016.0
20260505072504 56 132 1.7 2.6 0.00 0.00 0.00 76 1016.0
20260505072004 57 142 0.9 1.7 0.00 0.00 0.00 75 1016.1
20260505071504 57 142 0.0 0.9 0.00 0.00 0.00 74 1016.0
20260505070505 58 136 0.9 1.7 0.00 0.00 0.00 73 1016.0
20260505070005 58 142 0.9 1.7 0.00 0.00 0.00 72 1015.9
20260505065504 58 134 0.9 2.6 0.00 0.00 0.00 72 1015.9
20260505065004 58 144 1.7 4.3 0.00 0.00 0.00 72 1015.9
20260505064504 59 139 1.7 2.6 0.00 0.00 0.00 71 1016.0
20260505064003 59 132 1.7 2.6 0.00 0.00 0.00 71 1016.0
20260505063504 59 124 1.7 2.6 0.00 0.00 0.00 71 1015.9
20260505062004 59 132 1.7 2.6 0.00 0.00 0.00 70 1015.8
20260505061504 60 137 1.7 2.6 0.00 0.00 0.00 70 1015.9
20260505061004 60 126 0.9 2.6 0.00 0.00 0.00 70 1015.9
20260505060503 60 130 1.7 2.6 0.00 0.00 0.00 69 1015.9
20260505060004 60 164 1.7 4.3 0.00 0.00 0.00 69 1016.0
20260505055503 60 138 0.9 7.0 0.00 0.00 0.00 69 1016.0
20260505055004 60 136 1.7 2.6 0.00 0.00 0.00 69 1016.0
20260505054504 61 123 1.7 2.6 0.00 0.00 0.00 69 1016.0
20260505054004 61 141 1.7 2.6 0.00 0.00 0.00 68 1016.1
20260505053504 61 154 1.7 2.6 0.00 0.00 0.00 67 1016.1
20260505053004 61 130 1.7 2.6 0.00 0.00 0.00 67 1016.1
20260505052504 61 136 2.6 5.2 0.00 0.00 0.00 67 1016.2
20260505052004 62 156 0.9 2.6 0.00 0.00 0.00 67 1016.2
20260505051504 62 138 1.7 7.8 0.00 0.00 0.00 67 1016.3
20260505051004 62 144 2.6 6.1 0.00 0.00 0.00 67 1016.2
20260505050505 62 144 1.7 6.1 0.00 0.00 0.00 67 1016.3
20260505041503 63 141 2.6 6.1 0.00 0.00 0.00 66 1016.3
20260505041005 63 167 2.6 5.2 0.00 0.00 0.00 66 1016.3
20260505040504 63 132 2.6 6.1 0.00 0.00 0.00 66 1016.3
20260505040004 63 140 2.6 2.6 0.00 0.00 0.00 65 1016.3
20260505035504 63 138 2.6 5.2 0.00 0.00 0.00 65 1016.4
20260505035004 63 163 3.5 6.1 0.00 0.00 0.00 65 1016.3
20260505034504 64 160 4.3 8.7 0.00 0.00 0.00 64 1016.3
20260505034004 64 136 2.6 7.0 0.00 0.00 0.00 64 1016.3
20260505033505 64 135 1.7 6.1 0.00 0.00 0.00 63 1016.2
20260505033004 64 139 2.6 5.2 0.00 0.00 0.00 63 1016.3
20260505032504 64 158 2.6 7.0 0.00 0.00 0.00 63 1016.2
20260505032005 64 141 2.6 6.1 0.00 0.00 0.00 63 1016.2
20260505030504 65 183 0.9 5.2 0.00 0.00 0.00 62 1016.3
20260505030004 65 146 2.6 6.1 0.00 0.00 0.00 62 1016.3
20260505025504 65 151 2.6 6.1 0.00 0.00 0.00 62 1016.3
20260505025004 66 136 2.6 7.8 0.00 0.00 0.00 62 1016.3
20260505023504 66 143 2.6 7.0 0.00 0.00 0.00 61 1016.3
20260505023003 66 152 3.5 8.7 0.00 0.00 0.00 60 1016.2
20260505022504 66 157 4.3 8.7 0.00 0.00 0.00 60 1016.2
20260505021504 67 139 5.2 10.4 0.00 0.00 0.00 60 1016.2
20260505021004 67 134 4.3 10.4 0.00 0.00 0.00 60 1016.2
20260505020504 67 135 2.6 7.0 0.00 0.00 0.00 60 1016.1
20260505020004 67 159 4.3 7.8 0.00 0.00 0.00 59 1016.1
20260505015504 67 176 2.6 8.7 0.00 0.00 0.00 57 1016.0
20260505015003 67 132 4.3 7.8 0.00 0.00 0.00 56 1015.9
20260505014504 67 135 2.6 5.2 0.00 0.00 0.00 55 1015.9
20260505013504 68 137 4.3 8.7 0.00 0.00 0.00 52 1015.7
20260505013004 68 130 4.3 7.8 0.00 0.00 0.00 50 1015.6
20260505012505 68 139 4.3 8.7 0.00 0.00 0.00 49 1015.5
20260505011504 67 142 1.7 2.6 0.00 0.00 0.00 49 1015.3
20260505011004 68 133 1.7 2.6 0.00 0.00 0.00 48 1015.2
20260505010505 68 150 1.7 2.6 0.00 0.00 0.00 48 1015.2
20260505010004 68 131 1.7 2.6 0.00 0.00 0.00 48 1015.1
20260505005505 68 123 1.7 2.6 0.00 0.00 0.00 47 1015.0
20260505005004 68 135 1.7 2.6 0.00 0.00 0.00 47 1015.0
20260505004504 69 149 1.7 2.6 0.00 0.00 0.00 46 1014.9
20260505004004 69 133 0.9 2.6 0.00 0.00 0.00 46 1014.8
20260505003504 69 137 1.7 4.3 0.00 0.00 0.00 45 1014.8
20260505003004 70 128 1.7 2.6 0.00 0.00 0.00 45 1014.8
20260505002504 70 127 1.7 2.6 0.00 0.00 0.00 44 1014.7
20260505002004 70 151 1.7 2.6 0.00 0.00 0.00 44 1014.7
20260505001504 71 135 0.9 2.6 0.00 0.00 0.00 43 1014.7
20260505000504 72 136 1.7 2.6 0.00 0.00 0.00 42 1014.6
20260504235004 73 138 1.7 2.6 0.00 0.00 0.00 41 1014.4
20260504234505 73 170 1.7 6.1 0.00 0.00 0.00 39 1014.4
20260504234004 74 166 0.9 2.6 0.00 0.00 0.00 39 1014.3
20260504232004 75 135 1.7 5.2 0.00 0.00 0.00 37 1014.2
20260504231504 75 134 2.6 6.1 0.00 0.00 0.00 37 1014.1
20260504231004 76 184 2.6 6.1 0.00 0.00 0.00 37 1014.0
20260504230005 76 137 2.6 7.8 0.00 0.00 0.00 35 1014.1
20260504225504 76 181 3.5 8.7 0.00 0.00 0.00 34 1014.1
20260504224004 77 153 3.5 7.0 0.00 0.00 0.00 34 1014.1
20260504223505 78 151 2.6 4.3 0.00 0.00 0.00 33 1014.0
20260504223004 78 154 1.7 6.1 0.00 0.00 0.00 33 1014.0
20260504222004 78 162 2.6 7.0 0.00 0.00 0.00 33 1014.1
20260504221004 80 150 3.5 7.0 0.00 0.00 0.00 30 1014.1
20260504220504 81 165 3.5 7.8 0.00 0.00 0.00 31 1014.1
20260504220004 82 114 1.7 4.3 0.00 0.00 0.00 29 1014.1
20260504215504 82 220 0.9 2.6 0.00 0.00 0.00 28 1014.0
20260504215004 82 104 1.7 2.6 0.00 0.00 0.00 28 1014.0
20260504214504 82 181 2.6 5.2 0.00 0.00 0.00 28 1014.0
20260504214003 82 295 2.6 4.3 0.00 0.00 0.00 29 1013.9
20260504213504 82 212 1.7 5.2 0.00 0.00 0.00 27 1013.9
20260504213004 82 238 1.7 2.6 0.00 0.00 0.00 30 1013.9
20260504212504 81 233 1.7 2.6 0.00 0.00 0.00 29 1014.0
20260504212004 81 172 2.6 6.1 0.00 0.00 0.00 28 1014.1
20260504211504 82 145 2.6 6.1 0.00 0.00 0.00 28 1014.0
20260504211004 82 149 1.7 7.0 0.00 0.00 0.00 28 1014.0
20260504210504 82 222 2.6 8.7 0.00 0.00 0.00 31 1014.0
20260504210004 82 171 2.6 7.8 0.00 0.00 0.00 27 1014.1
20260504205003 83 249 1.7 4.3 0.00 0.00 0.00 28 1014.3
20260504204004 83 304 1.7 7.0 0.00 0.00 0.00 28 1014.3
20260504203003 82 181 2.6 7.0 0.00 0.00 0.00 29 1014.4
20260504202503 82 240 1.7 5.2 0.00 0.00 0.00 27 1014.5
20260504202004 81 215 1.7 6.1 0.00 0.00 0.00 28 1014.6
20260504201504 81 214 2.6 8.7 0.00 0.00 0.00 28 1014.7
20260504201003 81 303 4.3 8.7 0.00 0.00 0.00 29 1014.7
20260504200004 82 224 2.6 7.8 0.00 0.00 0.00 26 1014.8
20260504195504 81 155 2.6 6.1 0.00 0.00 0.00 27 1014.8
20260504195004 81 158 1.7 6.1 0.00 0.00 0.00 29 1014.9
20260504194503 81 177 4.3 11.3 0.00 0.00 0.00 29 1014.9
20260504194004 82 275 1.7 5.2 0.00 0.00 0.00 26 1014.8
20260504193504 81 242 2.6 6.1 0.00 0.00 0.00 28 1014.9
20260504193003 81 214 2.6 7.0 0.00 0.00 0.00 28 1014.9
20260504192504 81 155 2.6 8.7 0.00 0.00 0.00 29 1014.9
20260504192004 81 152 3.5 10.4 0.00 0.00 0.00 30 1015.0
20260504191504 81 303 2.6 8.7 0.00 0.00 0.00 26 1015.2
20260504191004 81 224 1.7 5.2 0.00 0.00 0.00 29 1015.2
20260504190504 81 176 1.7 5.2 0.00 0.00 0.00 29 1015.3
20260504190003 81 189 2.6 5.2 0.00 0.00 0.00 30 1015.5
20260504185503 81 31 1.7 6.1 0.00 0.00 0.00 28 1015.6
20260504184003 80 162 2.6 7.0 0.00 0.00 0.00 32 1015.4
20260504183504 80 321 0.9 4.3 0.00 0.00 0.00 31 1015.6
20260504183005 80 229 1.7 7.0 0.00 0.00 0.00 29 1015.6
20260504182503 80 175 2.6 7.0 0.00 0.00 0.00 30 1015.8
20260504182004 80 174 4.3 7.0 0.00 0.00 0.00 33 1015.8
20260504181503 80 184 1.7 7.8 0.00 0.00 0.00 34 1015.8
20260504181004 80 289 1.7 7.8 0.00 0.00 0.00 32 1015.8
20260504180504 80 241 1.7 6.1 0.00 0.00 0.00 31 1015.8
20260504180004 79 235 2.6 6.1 0.00 0.00 0.00 33 1015.8
20260504175503 79 137 2.6 7.0 0.00 0.00 0.00 30 1015.7
20260504175004 79 175 2.6 5.2 0.00 0.00 0.00 31 1015.8
20260504174503 79 254 3.5 7.8 0.00 0.00 0.00 32 1016.0
20260504174003 79 124 2.6 7.8 0.00 0.00 0.00 32 1016.0
20260504173504 79 250 4.3 7.8 0.00 0.00 0.00 34 1016.2
20260504173004 79 214 1.7 8.7 0.00 0.00 0.00 34 1016.2
20260504171004 79 246 1.7 4.3 0.00 0.00 0.00 35 1016.5
20260504170505 78 306 2.6 7.0 0.00 0.00 0.00 37 1016.6
20260504151004 72 231 1.7 6.1 0.00 0.00 0.00 50 1017.7
20260504150504 72 165 2.6 5.2 0.00 0.00 0.00 50 1017.8
20260504141004 69 251 0.9 5.2 0.00 0.00 0.00 58 1017.9
20260504140505 68 37 0.9 2.6 0.00 0.00 0.00 58 1018.0
20260504130504 64 357 0.9 4.3 0.00 0.00 0.00 66 1018.1